When you browse on this site, cookies collect data to enhance your experience and personalize the content and advertising you see.
Visit our Privacy Policy to learn more. By continuing to use the site, you agree to this use of cookies and data.

Hourly Weather Bom Jesus da Lapa

Today, 29 September, Tuesday

Time Temperature Precipitation Wind Pressure Humidity
00:00 +25°C° 0 mm 1 mps 722 mmHg 32%
01:00 +25°C° 0 mm 1 mps 722 mmHg 34%
02:00 +24°C° 0 mm 1 mps 721 mmHg 36%
03:00 +24°C° 0 mm 1 mps 721 mmHg 38%
04:00 +23°C° 0 mm 1 mps 722 mmHg 43%
05:00 +22°C° 0 mm 1 mps 722 mmHg 48%
06:00 +22°C° 0 mm 1 mps 722 mmHg 53%
07:00 +26°C° 0 mm 1 mps 723 mmHg 45%
08:00 +30°C° 0 mm 1 mps 724 mmHg 37%
09:00 +34°C° 0 mm 1 mps 724 mmHg 28%
10:00 +37°C° 0 mm 2 mps 724 mmHg 22%
11:00 +40°C° 0 mm 2 mps 723 mmHg 16%
12:00 +43°C° 0 mm 3 mps 723 mmHg 10%
13:00 +43°C° 0 mm 3 mps 722 mmHg 10%
14:00 +44°C° 0 mm 4 mps 721 mmHg 10%
15:00 +45°C° 0 mm 5 mps 721 mmHg 11%
16:00 +42°C° 0 mm 5 mps 721 mmHg 13%
17:00 +40°C° 0 mm 5 mps 721 mmHg 15%
18:00 +37°C° 0 mm 5 mps 721 mmHg 18%
19:00 +35°C° 0 mm 5 mps 721 mmHg 21%
20:00 +33°C° 0 mm 4 mps 722 mmHg 24%
21:00 +30°C° 0 mm 3 mps 723 mmHg 27%
22:00 +29°C° 0 mm 3 mps 723 mmHg 30%
23:00 +28°C° 0 mm 3 mps 723 mmHg 33%

Tomorrow, 30 September, Wednesday

Time Temperature Precipitation Wind Pressure Humidity
00:00 +27°C° 0 mm 3 mps 723 mmHg 35%
01:00 +26°C° 0 mm 2 mps 723 mmHg 40%
02:00 +25°C° 0 mm 2 mps 723 mmHg 44%
03:00 +24°C° 0 mm 1 mps 722 mmHg 48%
04:00 +23°C° 0 mm 1 mps 723 mmHg 53%
05:00 +22°C° 0 mm 1 mps 723 mmHg 57%
06:00 +22°C° 0 mm 1 mps 723 mmHg 62%
07:00 +25°C° 0 mm 1 mps 724 mmHg 52%
08:00 +29°C° 0 mm 2 mps 725 mmHg 43%
09:00 +32°C° 0 mm 2 mps 725 mmHg 33%
10:00 +35°C° 0 mm 3 mps 725 mmHg 29%
11:00 +37°C° 0 mm 3 mps 724 mmHg 24%
12:00 +40°C° 0 mm 4 mps 724 mmHg 20%
13:00 +41°C° 0 mm 4 mps 723 mmHg 18%
14:00 +42°C° 0 mm 5 mps 722 mmHg 17%
15:00 +42°C° 0 mm 5 mps 722 mmHg 16%
16:00 +40°C° 0 mm 5 mps 721 mmHg 19%
17:00 +37°C° 0 mm 5 mps 721 mmHg 22%
18:00 +35°C° 0 mm 5 mps 721 mmHg 25%
19:00 +33°C° 0 mm 4 mps 722 mmHg 30%
20:00 +32°C° 0 mm 4 mps 722 mmHg 35%
21:00 +29°C° 0 mm 4 mps 723 mmHg 40%
22:00 +28°C° 0 mm 3 mps 723 mmHg 44%
23:00 +27°C° 0 mm 3 mps 723 mmHg 47%

Day after tomorrow, 1 October, Thursday

Time Temperature Precipitation Wind Pressure Humidity
00:00 +25°C° 0 mm 2 mps 723 mmHg 51%
01:00 +24°C° 0 mm 2 mps 723 mmHg 57%
02:00 +23°C° 0 mm 2 mps 722 mmHg 62%
03:00 +22°C° 0 mm 1 mps 722 mmHg 67%
04:00 +22°C° 0 mm 1 mps 722 mmHg 70%
05:00 +21°C° 0 mm 1 mps 723 mmHg 73%
06:00 +19°C° 0 mm 2 mps 723 mmHg 76%
07:00 +24°C° 0 mm 2 mps 723 mmHg 62%
08:00 +27°C° 0 mm 2 mps 724 mmHg 48%
09:00 +31°C° 0 mm 3 mps 725 mmHg 34%
10:00 +35°C° 0 mm 3 mps 724 mmHg 28%
11:00 +37°C° 0 mm 3 mps 724 mmHg 22%
12:00 +39°C° 0 mm 3 mps 723 mmHg 17%
13:00 +40°C° 0 mm 2 mps 722 mmHg 15%
14:00 +41°C° 0 mm 2 mps 721 mmHg 13%
15:00 +42°C° 0 mm 2 mps 721 mmHg 12%
16:00 +39°C° 0 mm 2 mps 721 mmHg 13%
17:00 +37°C° 0 mm 2 mps 721 mmHg 15%
18:00 +34°C° 0 mm 2 mps 720 mmHg 17%
19:00 +32°C° 0 mm 2 mps 721 mmHg 20%
20:00 +30°C° 0 mm 3 mps 721 mmHg 24%
21:00 +28°C° 0 mm 3 mps 722 mmHg 27%
22:00 +27°C° 0 mm 2 mps 722 mmHg 32%
23:00 +26°C° 0 mm 1 mps 722 mmHg 36%

2 October, Friday

Time Temperature Precipitation Wind Pressure Humidity
00:00 +24°C° 0 mm 1 mps 722 mmHg 41%
01:00 +24°C° 0 mm 1 mps 722 mmHg 45%
02:00 +21°C° 0 mm 0 mps 722 mmHg 49%
03:00 +20°C° 0 mm 0 mps 722 mmHg 53%
04:00 +22°C° 0 mm 1 mps 722 mmHg 56%
05:00 +22°C° 0 mm 1 mps 722 mmHg 60%
06:00 +21°C° 0 mm 1 mps 722 mmHg 63%
07:00 +25°C° 0 mm 1 mps 723 mmHg 53%
08:00 +29°C° 0 mm 2 mps 724 mmHg 44%
09:00 +32°C° 0 mm 2 mps 724 mmHg 34%
10:00 +35°C° 0 mm 1 mps 724 mmHg 28%
11:00 +39°C° 0 mm 1 mps 724 mmHg 22%
12:00 +42°C° 0 mm 1 mps 723 mmHg 16%
13:00 +42°C° 0 mm 1 mps 722 mmHg 15%
14:00 +42°C° 0 mm 1 mps 722 mmHg 13%
15:00 +42°C° 0 mm 1 mps 721 mmHg 12%
16:00 +40°C° 0 mm 1 mps 721 mmHg 14%
17:00 +36°C° 0 mm 1 mps 720 mmHg 15%
18:00 +33°C° 0 mm 1 mps 720 mmHg 17%
19:00 +32°C° 0 mm 2 mps 721 mmHg 20%
20:00 +30°C° 0 mm 2 mps 721 mmHg 23%
21:00 +28°C° 0 mm 2 mps 722 mmHg 26%
22:00 +27°C° 0 mm 2 mps 722 mmHg 30%
23:00 +26°C° 0 mm 2 mps 722 mmHg 34%

3 October, Saturday

Time Temperature Precipitation Wind Pressure Humidity
00:00 +25°C° 0 mm 2 mps 722 mmHg 38%
01:00 +24°C° 0 mm 1 mps 722 mmHg 45%
02:00 +23°C° 0 mm 1 mps 722 mmHg 52%
03:00 +22°C° 0 mm 1 mps 721 mmHg 58%
04:00 +22°C° 0 mm 1 mps 722 mmHg 62%
05:00 +21°C° 0 mm 1 mps 722 mmHg 65%
06:00 +21°C° 0 mm 1 mps 722 mmHg 69%
07:00 +25°C° 0 mm 1 mps 723 mmHg 57%
08:00 +29°C° 0 mm 1 mps 724 mmHg 46%
09:00 +34°C° 0 mm 2 mps 724 mmHg 35%
10:00 +36°C° 0 mm 2 mps 724 mmHg 29%
11:00 +39°C° 0 mm 2 mps 723 mmHg 23%
12:00 +41°C° 0 mm 2 mps 723 mmHg 17%
13:00 +42°C° 0 mm 2 mps 722 mmHg 16%
14:00 +43°C° 0 mm 3 mps 721 mmHg 14%
15:00 +43°C° 0 mm 3 mps 721 mmHg 12%
16:00 +40°C° 0 mm 3 mps 721 mmHg 14%
17:00 +38°C° 0 mm 3 mps 721 mmHg 17%
18:00 +35°C° 0 mm 3 mps 721 mmHg 19%
19:00 +34°C° 0 mm 3 mps 721 mmHg 22%
20:00 +31°C° 0 mm 3 mps 721 mmHg 26%
21:00 +29°C° 0 mm 3 mps 722 mmHg 30%
22:00 +27°C° 0 mm 2 mps 722 mmHg 34%
23:00 +26°C° 0 mm 1 mps 722 mmHg 38%

4 October, Sunday

Time Temperature Precipitation Wind Pressure Humidity
00:00 +25°C° 0 mm 1 mps 722 mmHg 42%
01:00 +24°C° 0 mm 1 mps 722 mmHg 44%
02:00 +24°C° 0 mm 1 mps 722 mmHg 46%
03:00 +23°C° 0 mm 1 mps 722 mmHg 48%
04:00 +23°C° 0 mm 1 mps 722 mmHg 51%
05:00 +23°C° 0 mm 1 mps 723 mmHg 54%
06:00 +21°C° 0 mm 2 mps 723 mmHg 58%
07:00 +25°C° 0 mm 2 mps 724 mmHg 49%
08:00 +29°C° 0 mm 3 mps 725 mmHg 40%
09:00 +33°C° 0 mm 4 mps 725 mmHg 31%
10:00 +35°C° 0 mm 4 mps 725 mmHg 27%
11:00 +37°C° 0 mm 3 mps 724 mmHg 22%
12:00 +39°C° 0 mm 3 mps 724 mmHg 18%
13:00 +40°C° 0 mm 3 mps 723 mmHg 16%
14:00 +40°C° 0 mm 3 mps 722 mmHg 15%
15:00 +42°C° 0 mm 3 mps 721 mmHg 14%
16:00 +40°C° 0 mm 4 mps 722 mmHg 18%
17:00 +37°C° 0 mm 4 mps 722 mmHg 21%
18:00 +34°C° 0 mm 5 mps 722 mmHg 25%
19:00 +33°C° 0 mm 4 mps 722 mmHg 30%
20:00 +30°C° 0 mm 3 mps 723 mmHg 35%
21:00 +28°C° 0 mm 3 mps 723 mmHg 39%
22:00 +27°C° 0 mm 2 mps 723 mmHg 45%
23:00 +26°C° 0 mm 2 mps 723 mmHg 50%
Show more